Retour au catalogue

GNOMES-4

ActifMétéoSSO
NORAD 58462·PAYLOAD·🇺🇸 United States

Lancé Dec 1, 2023 depuis Vandenberg Space Force Base

Loading…

Prochains Passages (prochaines 24 heures)

TLE

FraisSource: Space-Track

Époque: Sep 14, 2026, 14:41 UTC

1 58462U 23185A   26257.61227518  .00002408  00000-0  19158-3 0  9999
2 58462  97.4735 311.4658 0011411  28.6783 331.5067 15.01269977152709

Suivez GNOMES-4 en temps réel avec AllMySat

Download on the App Store